EW3852 Weather Reports


Display with metric or nautical units.
time (UTC)temp
F
wind
direction
speed
MPH
gust
MPH
rain 1hr
in
rain 24hr
in
rain mn
in
humidity
%
barometer
mb
20260507192203 49 273 3.0 7.0 0.00 0.00 0.00 48 1012.3
20260507191703 49 196 4.0 6.0 0.00 0.00 0.00 48 1012.4
20260507191203 49 257 3.0 6.0 0.00 0.00 0.00 47 1012.3
20260507190704 48 310 2.0 6.0 0.00 0.00 0.00 46 1012.3
20260507190203 48 266 3.0 10.0 0.00 0.00 0.00 46 1012.4
20260507185703 48 245 3.0 7.0 0.00 0.00 0.00 45 1012.4
20260507185203 48 232 4.0 7.0 0.00 0.00 0.00 46 1012.3
20260507184203 48 190 2.0 6.0 0.00 0.00 0.00 47 1012.2
20260507183703 48 234 2.0 8.0 0.00 0.00 0.00 49 1012.4
20260507183203 48 189 5.0 9.0 0.00 0.00 0.00 48 1012.4
20260507182703 47 325 3.0 5.0 0.00 0.00 0.00 48 1012.4
20260507182204 47 226 4.0 7.0 0.00 0.00 0.00 49 1012.5
20260507181703 47 174 4.0 10.0 0.00 0.00 0.00 48 1012.5
20260507181203 47 225 5.0 12.0 0.00 0.00 0.00 47 1012.5
20260507180703 47 190 3.0 9.0 0.00 0.00 0.00 48 1012.6
20260507180204 48 208 3.0 8.0 0.00 0.00 0.00 48 1012.5
20260507175704 48 257 3.0 8.0 0.00 0.00 0.00 49 1012.6
20260507174704 48 191 3.0 7.0 0.00 0.00 0.00 50 1012.6
20260507174203 48 265 2.0 9.0 0.00 0.00 0.00 50 1012.6
20260507173704 48 296 2.0 5.0 0.00 0.00 0.00 48 1012.6
20260507173204 48 234 3.0 9.0 0.00 0.00 0.00 47 1012.7
20260507172703 48 245 4.0 8.0 0.00 0.00 0.00 48 1012.8
20260507172204 48 249 4.0 8.0 0.00 0.00 0.00 47 1012.9
20260507171703 49 252 5.0 8.0 0.00 0.00 0.00 47 1013.0
20260507171204 48 331 2.0 8.0 0.00 0.00 0.00 48 1013.0
20260507170704 48 287 2.0 3.0 0.00 0.00 0.00 48 1013.2
20260507170203 48 44 3.0 12.0 0.00 0.00 0.00 48 1013.2
20260507165704 48 245 2.0 8.0 0.00 0.00 0.00 51 1013.2
20260507165203 48 248 3.0 8.0 0.00 0.00 0.00 48 1013.3
20260507164703 47 291 3.0 8.0 0.00 0.00 0.00 50 1013.4
20260507164204 46 242 3.0 10.0 0.00 0.00 0.00 50 1013.5
20260507163703 46 271 3.0 8.0 0.00 0.00 0.00 49 1013.5
20260507163203 46 115 2.0 7.0 0.00 0.00 0.00 51 1013.6
20260507162704 46 242 5.0 9.0 0.00 0.00 0.00 51 1013.7
20260507162204 46 40 3.0 7.0 0.00 0.00 0.00 53 1013.7
20260507161203 45 245 3.0 8.0 0.00 0.00 0.00 58 1013.9
20260507160704 45 266 3.0 7.0 0.00 0.00 0.00 61 1013.9
20260507160204 44 212 5.0 7.0 0.00 0.00 0.00 60 1013.9
20260507155704 43 296 2.0 5.0 0.00 0.00 0.00 65 1014.0
20260507155204 43 257 2.0 3.0 0.00 0.00 0.00 66 1014.0
20260507154702 42 243 3.0 7.0 0.00 0.00 0.00 65 1014.1
20260507154202 42 254 3.0 5.0 0.00 0.00 0.00 65 1014.0
20260507153703 42 249 3.0 5.0 0.00 0.00 0.00 66 1014.0
20260507153203 42 252 1.0 3.0 0.00 0.00 0.00 66 1014.0
20260507152203 42 251 2.0 3.0 0.00 0.00 0.00 67 1014.0
20260507151702 42 245 1.0 3.0 0.00 0.00 0.00 68 1014.0
20260507150703 42 227 2.0 3.0 0.00 0.00 0.00 69 1014.0
20260507150203 42 213 0.0 0.0 0.00 0.00 0.00 70 1014.0
20260507145703 42 222 0.0 3.0 0.00 0.00 0.00 69 1014.0
20260507145202 42 241 2.0 3.0 0.00 0.00 0.00 68 1014.0
20260507144202 42 240 2.0 3.0 0.00 0.00 0.00 68 1014.1
20260507143702 42 244 1.0 2.0 0.00 0.00 0.00 68 1014.1
20260507142702 42 235 2.0 3.0 0.00 0.00 0.00 68 1014.1
20260507142203 42 228 1.0 3.0 0.00 0.00 0.00 69 1014.1
20260507141703 42 210 1.0 3.0 0.00 0.00 0.00 69 1014.1
20260507141202 42 230 2.0 3.0 0.00 0.00 0.00 69 1014.1
20260507140703 42 215 3.0 5.0 0.00 0.00 0.00 68 1014.1
20260507135703 42 253 2.0 3.0 0.00 0.00 0.00 69 1014.2
20260507135203 42 239 1.0 3.0 0.00 0.00 0.00 69 1014.1
20260507134702 42 218 2.0 3.0 0.00 0.00 0.00 68 1014.1
20260507134203 42 247 2.0 3.0 0.00 0.00 0.00 69 1014.2
20260507133703 42 280 1.0 3.0 0.00 0.00 0.00 69 1014.1
20260507133202 42 90 1.0 3.0 0.00 0.00 0.00 71 1014.1
20260507132704 42 245 1.0 3.0 0.00 0.00 0.00 70 1014.0
20260507132203 42 224 2.0 3.0 0.00 0.00 0.00 71 1013.9
20260507131703 42 236 1.0 2.0 0.00 0.00 0.00 71 1013.9
20260507131203 42 234 1.0 3.0 0.00 0.00 0.00 72 1013.9
20260507130702 42 241 2.0 3.0 0.00 0.00 0.00 72 1013.9
20260507130203 42 238 2.0 3.0 0.00 0.00 0.00 74 1013.9
20260507125703 42 168 2.0 3.0 0.00 0.00 0.00 76 1013.8
20260507125202 41 166 2.0 3.0 0.00 0.00 0.00 78 1013.8
20260507124703 41 227 1.0 3.0 0.00 0.00 0.00 80 1013.8
20260507124202 41 163 2.0 3.0 0.00 0.00 0.00 82 1013.8
20260507123203 40 222 2.0 3.0 0.00 0.00 0.00 87 1013.7
20260507122705 39 237 1.0 3.0 0.00 0.00 0.00 91 1013.7
20260507122203 38 235 2.0 3.0 0.00 0.00 0.00 95 1013.7
20260507121702 37 203 1.0 3.0 0.00 0.00 0.00 96 1013.7
20260507121203 36 198 1.0 3.0 0.00 0.00 0.00 95 1013.7
20260507120703 35 144 0.0 1.0 0.00 0.00 0.00 95 1013.6
20260507120203 34 144 0.0 0.0 0.00 0.00 0.00 95 1013.6
20260507115703 33 144 0.0 1.0 0.00 0.00 0.00 95 1013.6
20260507115203 32 144 0.0 2.0 0.00 0.00 0.00 94 1013.5
20260507114703 32 144 0.0 2.0 0.00 0.00 0.00 94 1013.3
20260507114203 31 144 1.0 2.0 0.00 0.00 0.00 94 1013.3
20260507113703 31 144 0.0 2.0 0.00 0.00 0.00 94 1013.2
20260507113204 31 144 0.0 0.0 0.00 0.00 0.00 94 1013.2
20260507112703 31 144 0.0 0.0 0.00 0.00 0.00 93 1013.2
20260507112203 30 144 0.0 1.0 0.00 0.00 0.00 93 1013.1
20260507111703 30 144 0.0 0.0 0.00 0.00 0.00 93 1013.0
20260507111203 30 144 0.0 0.0 0.00 0.00 0.00 93 1013.0
20260507110703 30 144 0.0 0.0 0.00 0.00 0.00 93 1012.9
20260507105703 30 144 0.0 1.0 0.00 0.00 0.00 93 1012.8
20260507105203 30 144 0.0 0.0 0.00 0.00 0.00 93 1012.8
20260507104704 30 144 0.0 0.0 0.00 0.00 0.00 92 1012.7
20260507104203 30 144 0.0 0.0 0.00 0.00 0.00 92 1012.7
20260507103703 30 144 0.0 0.0 0.00 0.00 0.00 92 1012.7
20260507103203 30 144 0.0 0.0 0.00 0.00 0.00 92 1012.7
20260507102704 30 144 0.0 0.0 0.00 0.00 0.00 92 1012.7
20260507102203 30 144 0.0 0.0 0.00 0.00 0.00 92 1012.6
20260507101703 31 144 0.0 0.0 0.00 0.00 0.00 92 1012.6
20260507100703 31 144 0.0 0.0 0.00 0.00 0.00 92 1012.6
20260507100203 31 144 0.0 0.0 0.00 0.00 0.00 91 1012.7
20260507095703 31 144 0.0 0.0 0.00 0.00 0.00 91 1012.6
20260507094703 31 144 0.0 0.0 0.00 0.00 0.00 91 1012.7
20260507094203 31 144 0.0 0.0 0.00 0.00 0.00 91 1012.7
20260507093703 32 144 0.0 0.0 0.00 0.00 0.00 91 1012.7
20260507093203 32 144 0.0 0.0 0.00 0.00 0.00 91 1012.7
20260507092703 32 144 0.0 0.0 0.00 0.00 0.00 91 1012.7
20260507092203 32 144 0.0 0.0 0.00 0.00 0.00 90 1012.8
20260507091703 32 144 0.0 0.0 0.00 0.00 0.00 90 1012.8
20260507091203 32 144 0.0 0.0 0.00 0.00 0.00 91 1012.8
20260507090703 33 144 0.0 0.0 0.00 0.00 0.00 90 1012.8
20260507090203 33 144 0.0 0.0 0.00 0.00 0.00 90 1012.8
20260507085704 33 144 0.0 1.0 0.00 0.00 0.00 90 1012.9
20260507085203 33 144 0.0 0.0 0.00 0.00 0.00 90 1013.0
20260507084704 33 144 0.0 0.0 0.00 0.00 0.00 89 1013.0
20260507084203 34 144 0.0 0.0 0.00 0.00 0.00 89 1012.9
20260507083704 34 144 0.0 0.0 0.00 0.00 0.00 89 1013.0
20260507083203 34 144 0.0 0.0 0.00 0.00 0.00 89 1013.0
20260507082703 34 144 0.0 0.0 0.00 0.00 0.00 89 1012.9
20260507082204 34 144 0.0 0.0 0.00 0.00 0.00 89 1012.9
20260507081703 35 144 0.0 0.0 0.00 0.00 0.00 88 1013.0
20260507081204 35 144 0.0 0.0 0.00 0.00 0.00 88 1013.0
20260507080204 35 144 0.0 0.0 0.00 0.00 0.00 87 1013.0
20260507075703 36 144 0.0 0.0 0.00 0.00 0.00 87 1013.0
20260507074703 36 144 0.0 0.0 0.00 0.00 0.00 86 1013.0
20260507074204 37 144 0.0 0.0 0.00 0.00 0.00 85 1013.1
20260507073703 37 144 0.0 0.0 0.00 0.00 0.00 85 1013.1
20260507073203 37 144 0.0 0.0 0.00 0.00 0.00 85 1013.0
20260507072703 37 144 0.0 0.0 0.00 0.00 0.00 84 1013.1
20260507072204 38 144 0.0 0.0 0.00 0.00 0.00 84 1013.1
20260507071703 38 144 0.0 0.0 0.00 0.00 0.00 83 1013.2
20260507071204 39 144 0.0 0.0 0.00 0.00 0.00 83 1013.2
20260507070703 39 144 0.0 0.0 0.00 0.00 0.00 83 1013.2
20260507065704 39 144 0.0 0.0 0.00 0.00 0.00 82 1013.3
20260507065203 40 144 0.0 0.0 0.00 0.00 0.00 82 1013.4
20260507064704 40 144 0.0 0.0 0.00 0.00 0.00 82 1013.3
20260507064203 40 144 0.0 0.0 0.00 0.00 0.00 82 1013.4
20260507063704 40 144 0.0 0.0 0.00 0.00 0.00 82 1013.4
20260507063202 40 144 0.0 0.0 0.00 0.00 0.00 82 1013.4
20260507062702 40 144 0.0 0.0 0.00 0.00 0.00 82 1013.3
20260507062203 40 144 0.0 0.0 0.00 0.00 0.00 82 1013.3
20260507061702 40 144 0.0 0.0 0.00 0.00 0.00 82 1013.3
20260507061203 41 144 0.0 0.0 0.00 0.00 0.00 82 1013.4
20260507060703 41 144 0.0 0.0 0.00 0.00 0.00 82 1013.4
20260507055702 41 144 0.0 0.0 0.00 0.00 0.00 81 1013.4
20260507055203 41 144 1.0 1.0 0.00 0.00 0.00 80 1013.4
20260507054702 41 144 0.0 0.0 0.00 0.00 0.00 80 1013.4
20260507054203 41 144 0.0 0.0 0.00 0.00 0.00 80 1013.4
20260507053702 41 144 0.0 1.0 0.00 0.00 0.00 80 1013.4
20260507053203 41 144 0.0 1.0 0.00 0.00 0.00 79 1013.4
20260507052702 41 144 0.0 0.0 0.00 0.00 0.00 79 1013.5
20260507051702 42 228 0.0 2.0 0.00 0.00 0.00 78 1013.6
20260507051203 42 228 0.0 3.0 0.00 0.00 0.00 78 1013.6
20260507050203 42 246 1.0 3.0 0.00 0.00 0.00 76 1013.6
20260507045703 42 238 2.0 3.0 0.00 0.00 0.00 75 1013.6
20260507045202 43 227 2.0 7.0 0.00 0.00 0.00 74 1013.6
20260507044702 43 202 2.0 3.0 0.00 0.00 0.00 72 1013.5
20260507044203 43 164 2.0 3.0 0.00 0.00 0.00 72 1013.5
20260507042702 43 277 1.0 3.0 0.00 0.00 0.00 69 1013.5
20260507041703 43 243 2.0 7.0 0.00 0.00 0.00 72 1013.3
20260507040703 43 259 0.0 3.0 0.00 0.00 0.00 74 1013.4
20260507040203 43 167 0.0 0.0 0.00 0.00 0.00 76 1013.4
20260507035702 43 167 0.0 0.0 0.00 0.00 0.00 77 1013.4
20260507035203 43 167 0.0 0.0 0.00 0.00 0.00 77 1013.4
20260507034703 43 186 0.0 0.0 0.00 0.00 0.00 78 1013.4
20260507034203 43 186 0.0 0.0 0.00 0.00 0.00 77 1013.4
20260507033703 42 186 0.0 0.0 0.00 0.00 0.00 77 1013.5
20260507033203 42 186 0.0 0.0 0.00 0.00 0.00 76 1013.5
20260507032703 42 186 0.0 0.0 0.00 0.00 0.00 76 1013.4
20260507032202 42 186 0.0 0.0 0.00 0.00 0.00 76 1013.4
20260507031703 42 186 0.0 0.0 0.00 0.00 0.00 75 1013.4
20260507031202 42 186 0.0 0.0 0.00 0.00 0.00 74 1013.4
20260507030703 42 186 0.0 0.0 0.00 0.00 0.00 74 1013.3
20260507030203 42 186 0.0 0.0 0.00 0.00 0.00 73 1013.3
20260507025703 43 186 0.0 0.0 0.00 0.00 0.00 72 1013.4
20260507025202 43 186 0.0 0.0 0.00 0.00 0.00 72 1013.4
20260507024703 43 186 0.0 0.0 0.00 0.00 0.00 71 1013.3
20260507024202 43 186 0.0 0.0 0.00 0.00 0.00 71 1013.3
20260507023703 43 186 0.0 0.0 0.00 0.00 0.00 70 1013.3
20260507023203 43 186 0.0 0.0 0.00 0.00 0.00 70 1013.3
20260507022703 43 186 0.0 0.0 0.00 0.00 0.00 69 1013.3
20260507022203 43 186 0.0 0.0 0.00 0.00 0.00 68 1013.2
20260507021703 43 186 0.0 0.0 0.00 0.00 0.00 68 1013.1
20260507021203 44 186 0.0 0.0 0.00 0.00 0.00 68 1013.1
20260507020703 44 178 0.0 0.0 0.00 0.00 0.00 67 1013.1
20260507020203 44 178 0.0 0.0 0.00 0.00 0.00 67 1013.1
20260507015703 44 178 0.0 0.0 0.00 0.00 0.00 66 1013.2
20260507015203 44 178 0.0 0.0 0.00 0.00 0.00 66 1013.2
20260507014203 44 165 0.0 0.0 0.00 0.00 0.00 65 1013.1
20260507013703 44 165 0.0 1.0 0.00 0.00 0.00 64 1013.1
20260507013204 44 165 1.0 2.0 0.00 0.00 0.00 64 1013.1
20260507012703 44 171 0.0 0.0 0.00 0.00 0.00 64 1013.1
20260507012203 44 174 1.0 2.0 0.00 0.00 0.00 63 1013.1
20260507011703 44 178 1.0 3.0 0.00 0.00 0.00 62 1013.1
20260507010703 44 227 1.0 3.0 0.00 0.00 0.00 61 1013.1
20260507010203 44 178 1.0 2.0 0.00 0.00 0.00 61 1013.1
20260507005703 44 165 0.0 1.0 0.00 0.00 0.00 60 1013.0
20260507005203 45 165 1.0 3.0 0.00 0.00 0.00 59 1013.0
20260507004703 45 169 1.0 2.0 0.00 0.00 0.00 59 1012.9
20260507004203 45 169 2.0 3.0 0.00 0.00 0.00 59 1012.9
20260507003704 45 159 1.0 3.0 0.00 0.00 0.00 59 1012.9
20260507003203 45 173 0.0 1.0 0.00 0.00 0.00 59 1012.9
20260507001703 46 160 1.0 2.0 0.00 0.00 0.00 58 1012.8
20260507001203 46 160 1.0 2.0 0.00 0.00 0.00 56 1012.8
20260507000704 46 160 1.0 3.0 0.00 0.00 0.00 56 1012.7
20260507000205 46 163 1.0 3.0 0.00 0.00 0.00 56 1012.6
20260506235703 46 161 1.0 3.0 0.00 0.00 0.00 55 1012.6
20260506235203 46 168 2.0 3.0 0.00 0.00 0.00 53 1012.7
20260506234203 47 166 2.0 5.0 0.00 0.00 0.00 51 1012.7
20260506233703 47 168 2.0 5.0 0.00 0.00 0.00 52 1012.7
20260506233204 47 230 1.0 3.0 0.00 0.00 0.00 51 1012.7
20260506232703 47 225 1.0 3.0 0.00 0.00 0.00 51 1012.7
20260506232203 47 243 2.0 3.0 0.00 0.00 0.00 50 1012.6
20260506231704 47 248 2.0 3.0 0.00 0.00 0.00 49 1012.6
20260506231203 48 168 2.0 6.0 0.00 0.00 0.00 49 1012.6
20260506230203 48 249 2.0 3.0 0.00 0.00 0.00 49 1012.7
20260506225703 48 230 2.0 5.0 0.00 0.00 0.00 49 1012.7
20260506225203 48 197 2.0 3.0 0.00 0.00 0.00 49 1012.7
20260506224703 49 242 2.0 5.0 0.00 0.00 0.00 47 1012.7
20260506223703 49 232 2.0 3.0 0.00 0.00 0.00 49 1012.7
20260506223204 49 195 1.0 3.0 0.00 0.00 0.00 49 1012.7
20260506222703 48 239 2.0 5.0 0.00 0.00 0.00 50 1012.8
20260506222204 48 170 3.0 7.0 0.00 0.00 0.00 49 1012.8
20260506221704 48 241 1.0 2.0 0.00 0.00 0.00 51 1012.8
20260506221203 48 280 2.0 3.0 0.00 0.00 0.00 51 1012.9
20260506220703 48 168 2.0 3.0 0.00 0.00 0.00 53 1012.8
20260506220204 48 196 1.0 3.0 0.00 0.00 0.00 53 1012.8
20260506215704 48 256 2.0 6.0 0.00 0.00 0.00 51 1012.8
20260506215203 48 219 2.0 5.0 0.00 0.00 0.00 52 1012.8
20260506214704 48 173 2.0 5.0 0.00 0.00 0.00 51 1012.8
20260506214204 48 170 2.0 3.0 0.00 0.00 0.00 52 1012.8
20260506213704 48 244 2.0 3.0 0.00 0.00 0.00 52 1012.7
20260506212702 48 243 3.0 5.0 0.00 0.00 0.00 53 1012.8
20260506211702 48 275 2.0 6.0 0.00 0.00 0.00 54 1012.8
20260506211203 48 260 3.0 7.0 0.00 0.00 0.00 52 1012.9
20260506210702 48 272 3.0 5.0 0.00 0.00 0.00 52 1012.9
20260506210202 49 297 2.0 3.0 0.00 0.00 0.00 52 1012.9
20260506205703 49 212 3.0 5.0 0.00 0.00 0.00 50 1012.9
20260506205203 49 295 3.0 10.0 0.00 0.00 0.00 50 1012.8
20260506204702 50 185 3.0 6.0 0.00 0.00 0.00 50 1012.9
20260506204202 50 225 2.0 5.0 0.00 0.00 0.00 51 1012.9
20260506203703 50 274 2.0 5.0 0.00 0.00 0.00 49 1013.0
20260506202703 50 186 3.0 8.0 0.00 0.00 0.00 47 1012.9
20260506202203 50 201 3.0 13.0 0.00 0.00 0.00 48 1012.9
20260506201702 50 217 5.0 8.0 0.00 0.00 0.00 46 1013.0
20260506201202 50 240 4.0 7.0 0.00 0.00 0.00 47 1012.8
20260506200703 50 220 3.0 12.0 0.00 0.00 0.00 48 1012.8
20260506195703 50 178 4.0 9.0 0.00 0.00 0.00 48 1012.9
20260506195203 50 213 4.0 9.0 0.00 0.00 0.00 47 1013.1
20260506194203 50 228 3.0 8.0 0.00 0.00 0.00 47 1013.0
20260506193702 50 250 3.0 8.0 0.00 0.00 0.00 47 1013.0
20260506193203 49 265 3.0 7.0 0.00 0.00 0.00 47 1013.0
20260506192703 50 248 3.0 6.0 0.00 0.00 0.00 46 1013.0